| time (UTC) | temp F | wind direction | speed MPH | gust MPH | rain 1hr in | rain 24hr in | rain mn in | humidity % | barometer mb |
| 20260505124518 | 51 | 240 | 0.0 | 0.0 | 0.00 | 0.00 | 0.00 | 91 | 1012.9 |
| 20260505123016 | 51 | 240 | 0.0 | 0.0 | 0.00 | 0.00 | 0.00 | 91 | 1012.7 |
| 20260505121515 | 51 | 240 | 0.0 | 0.0 | 0.00 | 0.00 | 0.00 | 91 | 1012.7 |
| 20260505120016 | 51 | 240 | 0.0 | 3.0 | 0.00 | 0.00 | 0.00 | 90 | 1012.7 |
| 20260505114513 | 51 | 240 | 0.0 | 0.0 | 0.00 | 0.00 | 0.00 | 90 | 1012.7 |
| 20260505113011 | 51 | 240 | 0.0 | 3.0 | 0.00 | 0.00 | 0.00 | 90 | 1012.6 |
| 20260505111521 | 51 | 250 | 0.0 | 2.0 | 0.00 | 0.00 | 0.00 | 90 | 1012.6 |
| 20260505101509 | 51 | 229 | 0.0 | 0.0 | 0.00 | 0.00 | 0.00 | 89 | 1012.0 |
| 20260505100003 | 51 | 229 | 0.0 | 1.0 | 0.00 | 0.00 | 0.00 | 89 | 1012.1 |
| 20260505094502 | 51 | 229 | 0.0 | 3.0 | 0.00 | 0.00 | 0.00 | 88 | 1012.1 |
| 20260505093059 | 52 | 229 | 0.0 | 4.0 | 0.00 | 0.00 | 0.00 | 87 | 1011.9 |
| 20260505091611 | 52 | 228 | 0.0 | 2.0 | 0.00 | 0.00 | 0.00 | 87 | 1011.8 |
| 20260505084604 | 53 | 229 | 0.0 | 5.0 | 0.00 | 0.00 | 0.00 | 86 | 1011.6 |
| 20260505083104 | 53 | 223 | 0.0 | 1.0 | 0.00 | 0.00 | 0.00 | 86 | 1011.6 |
| 20260505081550 | 53 | 223 | 0.0 | 0.0 | 0.00 | 0.00 | 0.00 | 85 | 1011.4 |
| 20260505080049 | 54 | 223 | 0.0 | 0.0 | 0.00 | 0.00 | 0.00 | 84 | 1011.4 |
| 20260505074546 | 54 | 223 | 0.0 | 0.0 | 0.00 | 0.00 | 0.00 | 85 | 1011.2 |
| 20260505073043 | 54 | 223 | 0.0 | 1.0 | 0.00 | 0.00 | 0.00 | 85 | 1011.0 |
| 20260505071541 | 54 | 223 | 0.0 | 0.0 | 0.00 | 0.00 | 0.00 | 84 | 1010.8 |
| 20260505070053 | 55 | 220 | 2.0 | 7.0 | 0.00 | 0.00 | 0.00 | 83 | 1010.8 |
| 20260505064540 | 55 | 262 | 1.0 | 4.0 | 0.00 | 0.00 | 0.00 | 83 | 1010.6 |
| 20260505063038 | 56 | 234 | 0.0 | 5.0 | 0.00 | 0.00 | 0.00 | 83 | 1010.4 |
| 20260505061603 | 56 | 210 | 0.0 | 6.0 | 0.00 | 0.00 | 0.00 | 82 | 1010.2 |
| 20260505060038 | 57 | 209 | 0.0 | 5.0 | 0.00 | 0.00 | 0.00 | 82 | 1010.0 |
| 20260505054545 | 59 | 223 | 2.0 | 4.0 | 0.00 | 0.00 | 0.00 | 79 | 1010.1 |
| 20260505053036 | 60 | 234 | 2.0 | 6.0 | 0.00 | 0.00 | 0.00 | 78 | 1009.9 |
| 20260505051536 | 61 | 246 | 3.0 | 7.0 | 0.00 | 0.00 | 0.00 | 77 | 1009.8 |
| 20260505041534 | 64 | 284 | 0.0 | 0.0 | 0.00 | 0.00 | 0.00 | 71 | 1009.2 |
| 20260505040041 | 65 | 251 | 2.0 | 11.0 | 0.00 | 0.00 | 0.00 | 70 | 1008.9 |
| 20260505034540 | 65 | 239 | 6.0 | 11.0 | 0.00 | 0.00 | 0.00 | 71 | 1008.6 |
| 20260505033133 | 65 | 257 | 4.0 | 10.0 | 0.00 | 0.00 | 0.00 | 73 | 1008.3 |
| 20260505031538 | 66 | 224 | 4.0 | 8.0 | 0.00 | 0.00 | 0.00 | 73 | 1008.2 |
| 20260505030031 | 67 | 246 | 3.0 | 11.0 | 0.00 | 0.00 | 0.00 | 73 | 1008.1 |
| 20260505024530 | 67 | 219 | 6.0 | 12.0 | 0.00 | 0.00 | 0.00 | 71 | 1008.0 |
| 20260505023029 | 68 | 212 | 3.0 | 9.0 | 0.00 | 0.00 | 0.00 | 70 | 1007.9 |
| 20260505021529 | 68 | 219 | 5.0 | 11.0 | 0.00 | 0.00 | 0.00 | 69 | 1007.9 |
| 20260505020036 | 69 | 217 | 4.0 | 10.0 | 0.00 | 0.00 | 0.00 | 68 | 1007.9 |
| 20260505014528 | 69 | 233 | 4.0 | 7.0 | 0.00 | 0.00 | 0.00 | 67 | 1007.9 |
| 20260505013027 | 70 | 169 | 4.0 | 10.0 | 0.00 | 0.00 | 0.00 | 67 | 1007.9 |
| 20260505011529 | 70 | 233 | 5.0 | 11.0 | 0.00 | 0.00 | 0.00 | 66 | 1008.0 |
| 20260505010028 | 70 | 213 | 5.0 | 11.0 | 0.00 | 0.00 | 0.00 | 65 | 1008.1 |
| 20260505004526 | 70 | 250 | 7.0 | 11.0 | 0.00 | 0.00 | 0.00 | 64 | 1008.2 |
| 20260505003026 | 70 | 205 | 2.0 | 11.0 | 0.00 | 0.00 | 0.00 | 65 | 1008.2 |
| 20260505001524 | 71 | 240 | 5.0 | 15.0 | 0.00 | 0.00 | 0.00 | 64 | 1008.3 |
| 20260505000039 | 70 | 222 | 4.0 | 12.0 | 0.00 | 0.00 | 0.00 | 65 | 1008.3 |
| 20260504234525 | 71 | 216 | 4.0 | 8.0 | 0.00 | 0.00 | 0.00 | 63 | 1008.2 |
| 20260504233022 | 70 | 220 | 6.0 | 12.0 | 0.00 | 0.00 | 0.00 | 63 | 1008.5 |
| 20260504231521 | 70 | 174 | 1.0 | 9.0 | 0.00 | 0.00 | 0.00 | 63 | 1008.6 |
| 20260504230020 | 69 | 212 | 7.0 | 14.0 | 0.00 | 0.00 | 0.00 | 63 | 1008.7 |
| 20260504224520 | 70 | 216 | 4.0 | 8.0 | 0.00 | 0.00 | 0.00 | 62 | 1008.8 |
| 20260504223019 | 69 | 210 | 1.0 | 9.0 | 0.00 | 0.00 | 0.00 | 64 | 1009.0 |
| 20260504221525 | 67 | 246 | 3.0 | 12.0 | 0.00 | 0.00 | 0.00 | 65 | 1009.2 |
| 20260504220033 | 66 | 209 | 5.0 | 11.0 | 0.00 | 0.00 | 0.00 | 66 | 1009.3 |
| 20260504214519 | 67 | 259 | 4.0 | 12.0 | 0.00 | 0.00 | 0.00 | 65 | 1009.4 |
| 20260504213017 | 65 | 173 | 2.0 | 10.0 | 0.00 | 0.00 | 0.00 | 67 | 1009.5 |
| 20260504211516 | 64 | 248 | 4.0 | 11.0 | 0.00 | 0.00 | 0.00 | 70 | 1009.7 |
| 20260504210016 | 63 | 225 | 7.0 | 12.0 | 0.00 | 0.00 | 0.00 | 70 | 1009.9 |
| 20260504204521 | 63 | 209 | 4.0 | 11.0 | 0.00 | 0.00 | 0.00 | 73 | 1010.2 |
| 20260504203015 | 61 | 182 | 6.0 | 11.0 | 0.00 | 0.00 | 0.00 | 74 | 1010.3 |
| 20260504201515 | 62 | 213 | 6.0 | 10.0 | 0.00 | 0.00 | 0.00 | 73 | 1010.3 |
| 20260504200014 | 60 | 167 | 4.0 | 12.0 | 0.00 | 0.00 | 0.00 | 76 | 1010.6 |
| 20260504194515 | 60 | 250 | 6.0 | 11.0 | 0.00 | 0.00 | 0.00 | 76 | 1010.7 |
| 20260504193015 | 59 | 219 | 3.0 | 12.0 | 0.00 | 0.00 | 0.00 | 79 | 1010.7 |
| 20260504191512 | 57 | 220 | 6.0 | 10.0 | 0.00 | 0.00 | 0.00 | 80 | 1010.7 |
| 20260504190013 | 57 | 169 | 3.0 | 11.0 | 0.00 | 0.00 | 0.00 | 81 | 1010.7 |
| 20260504184511 | 56 | 224 | 8.0 | 13.0 | 0.00 | 0.00 | 0.00 | 82 | 1010.9 |
| 20260504183010 | 56 | 192 | 5.0 | 11.0 | 0.00 | 0.00 | 0.00 | 83 | 1010.9 |
| 20260504181516 | 55 | 263 | 2.0 | 10.0 | 0.00 | 0.00 | 0.00 | 85 | 1010.8 |
| 20260504180010 | 54 | 202 | 6.0 | 14.0 | 0.00 | 0.00 | 0.00 | 86 | 1010.8 |
| 20260504174508 | 55 | 188 | 4.0 | 13.0 | 0.00 | 0.00 | 0.00 | 86 | 1010.8 |
| 20260504173006 | 54 | 262 | 4.0 | 10.0 | 0.00 | 0.00 | 0.00 | 87 | 1010.7 |
| 20260504171508 | 54 | 217 | 5.0 | 9.0 | 0.00 | 0.00 | 0.00 | 87 | 1010.6 |